Bydgoszcz Ignacy Jan Pade, Poland

7:38 AM CEST on October 17, 2017 (GMT +0200)
Szwederowo

Weather History for EPBY - October, 2017

Change the Weather History Date:

Friday, October 13, 2017

  Actual Average Record
Temperature  
Mean Temperature 52 °F -  
Max Temperature 59 °F - - ()
Min Temperature 44 °F - - ()
Degree Days  
Heating Degree Days 14    
Growing Degree Days 2 (Base 50)    
Moisture  
Dew Point 44 °F    
Average Humidity 76    
Maximum Humidity 93    
Minimum Humidity 55    
Precipitation  
Precipitation 0.00 in - - ()
Sea Level Pressure  
Sea Level Pressure 30.08 in    
Wind  
Wind Speed 16 mph ()    
Max Wind Speed 24 mph    
Max Gust Speed 38 mph    
Visibility 6.2 miles    
Events Rain    
T = Trace of Precipitation, MM = Missing Value Source: Averaged Metar Reports

Daily Weather History Graph

Daily Weather History Graph

Search for Another Location

Airport or City:

Trip Planner

Search our weather history database for the weather conditions in past years. The results will help you decide how hot, cold, wet, or windy it might be!

Date:

Astronomy

Oct. 13, 2017 Rise Set
Actual Time 7:10 AM CEST 5:56 PM CEST
Civil Twilight 6:36 AM CEST 6:31 PM CEST
Nautical Twilight 5:55 AM CEST 7:11 PM CEST
Astronomical Twilight 5:15 AM CEST 7:51 PM CEST
Moon No Moon Rise 3:20 PM CEST (10/13)
Length of Visible Light 11h 55m
Length of Day
10h 45m
Last Quarter, 40% of the Moon is Illuminated
Oct 13
Last Quarter
Oct 19
New
Oct 28
First Quarter
Nov 4
Full
Nov 10
Last Quarter

Hourly Weather History & Observations

Time (CEST) Temp. Windchill Dew Point Humidity Pressure Visibility Wind Dir Wind Speed Gust Speed Precip Events Conditions
12:00 AM 50.0 °F - 44.6 °F 82% 29.95 in 6.2 mi West 18.4 mph - N/A   Scattered Clouds
12:30 AM 51.8 °F - 42.8 °F 71% 29.95 in 6.2 mi West 21.9 mph 34.5 mph N/A   Overcast
1:00 AM 51.8 °F - 44.6 °F 76% 29.95 in 6.2 mi West 21.9 mph 38.0 mph N/A   Mostly Cloudy
1:30 AM 50.0 °F - 44.6 °F 82% 29.95 in 6.2 mi WNW 17.3 mph 28.8 mph N/A Rain Light Rain Showers
2:30 AM 51.8 °F - 44.6 °F 76% 29.95 in 6.2 mi West 20.7 mph 32.2 mph N/A   Partly Cloudy
3:00 AM 50.0 °F - 44.6 °F 82% 29.98 in 6.2 mi West 20.7 mph - N/A   Mostly Cloudy
3:30 AM 50.0 °F - 44.6 °F 82% 29.98 in 6.2 mi West 19.6 mph - N/A   Mostly Cloudy
4:00 AM 50.0 °F - 44.6 °F 82% 29.98 in 6.2 mi West 19.6 mph 31.1 mph N/A   Partly Cloudy
5:30 AM 50.0 °F - 44.6 °F 82% 30.01 in 6.2 mi West 17.3 mph - N/A   Partly Cloudy
7:30 AM 48.2 °F - 44.6 °F 87% 30.01 in - West 16.1 mph - N/A   Clear
8:00 AM 50.0 °F - 44.6 °F 82% 30.04 in 6.2 mi West 16.1 mph - N/A   Partly Cloudy
8:30 AM 50.0 °F - 44.6 °F 82% 30.04 in - West 18.4 mph 29.9 mph N/A   Clear
9:00 AM 51.8 °F - 46.4 °F 82% 30.04 in - West 17.3 mph 28.8 mph N/A   Clear
9:30 AM 53.6 °F - 44.6 °F 72% 30.04 in 6.2 mi West 19.6 mph 34.5 mph N/A   Scattered Clouds
10:00 AM 53.6 °F - 46.4 °F 77% 30.04 in 6.2 mi West 24.2 mph 38.0 mph N/A   Mostly Cloudy
10:30 AM 53.6 °F - 44.6 °F 72% 30.06 in 6.2 mi WNW 21.9 mph - N/A   Partly Cloudy
11:00 AM 55.4 °F - 44.6 °F 67% 30.06 in 6.2 mi WNW 21.9 mph 33.4 mph N/A   Partly Cloudy
12:30 PM 57.2 °F - 44.6 °F 63% 30.09 in 6.2 mi NW 23.0 mph - N/A   Scattered Clouds
1:00 PM 57.2 °F - 44.6 °F 63% 30.09 in 6.2 mi WNW 20.7 mph - N/A   Scattered Clouds
2:00 PM 59.0 °F - 42.8 °F 55% 30.09 in 6.2 mi WNW 23.0 mph - N/A   Scattered Clouds
2:30 PM 57.2 °F - 41.0 °F 55% 30.09 in 6.2 mi WNW 19.6 mph - N/A   Partly Cloudy
3:00 PM 59.0 °F - 42.8 °F 55% 30.12 in 6.2 mi WNW 23.0 mph - N/A   Partly Cloudy
3:30 PM 59.0 °F - 42.8 °F 55% 30.12 in 6.2 mi WNW 17.3 mph - N/A   Scattered Clouds
4:00 PM 59.0 °F - 42.8 °F 55% 30.12 in 6.2 mi WNW 17.3 mph - N/A   Partly Cloudy
4:30 PM 57.2 °F - 42.8 °F 59% 30.15 in 6.2 mi WNW 16.1 mph - N/A   Partly Cloudy
5:00 PM 55.4 °F - 42.8 °F 63% 30.15 in - WNW 12.7 mph - N/A   Clear
5:30 PM 55.4 °F - 42.8 °F 63% 30.15 in - WNW 12.7 mph - N/A   Clear
6:30 PM 48.2 °F - 42.8 °F 82% 30.18 in - West 9.2 mph - N/A   Clear
7:00 PM 48.2 °F - 42.8 °F 82% 30.18 in - West 8.1 mph - N/A   Clear
7:30 PM 46.4 °F 42.9 °F 42.8 °F 87% 30.18 in - West 6.9 mph - N/A   Clear
8:00 PM 44.6 °F 39.7 °F 41.0 °F 87% 30.18 in - WSW 9.2 mph - N/A   Clear
8:30 PM 44.6 °F 39.7 °F 42.8 °F 93% 30.18 in - WSW 9.2 mph - N/A   Clear
9:00 PM 44.6 °F 40.7 °F 42.8 °F 93% 30.21 in - WSW 6.9 mph - N/A   Clear
10:00 PM 44.6 °F 43.1 °F 42.8 °F 93% 30.21 in - SW 3.5 mph - N/A   Clear
10:30 PM 44.6 °F - 42.8 °F 93% 30.21 in - Variable 2.3 mph - N/A   Clear
11:00 PM 44.6 °F 41.4 °F 42.8 °F 93% 30.21 in - WSW 5.8 mph - N/A   Clear